Date String (YYYY-MM-DD hh:mm:ss) UTC,Instrument flags,absolute air pressure of the measurement (hPa),sample flow rate (lpm),inlet stack bypass flow (lpm),air temperature of the measurement (°C),ambient temperature measured by the external sensor (°C),aerosol sample conditioner tube jacket temperature (°C),OPC LED temperature (°C),internal box temperature (°C),relative humidity of the measurement (%),span deviation,mass concentration of particles derived from Lorenz-Mie calculation of OPC scattering (μg/m³),mass concentration of particles derived from Lorenz-Mie calculation of OPC scattering (μg/m³),mass concentration of particles derived from Lorenz-Mie calculation of OPC scattering (μg/m³)
DateTimeUTC,F1_M11,P_M11,Q1_M11,Q2_M11,T1_M11,T2_M11,T3_M11,T4_M11,T5_M11,U1_M11,ZSPAN_M11,X0_M11,X2_M11,X1_M11
2023-10-20 09:00:00,SystemResetWarning,0832.5,4.98,000.00,029.2,027.9,000.0,037.6,030.9,8.2,0000.0,0002.43,0000.62,0000.45
2023-10-20 09:01:00,SystemResetWarning,0832.5,4.99,000.00,029.2,027.9,000.0,037.6,030.9,8.1,0000.0,0002.54,0000.66,0000.46
2023-10-20 09:02:00,SystemResetWarning,0832.5,5.01,000.00,029.3,027.9,000.0,037.6,030.9,8.1,0000.0,0002.60,0000.69,0000.47
2023-10-20 09:03:00,SystemResetWarning,0832.5,5.01,000.00,029.3,027.9,000.0,037.6,030.9,8.1,0000.0,0003.18,0000.70,0000.48
2023-10-20 09:04:00,SystemResetWarning,0832.5,5.01,000.00,029.3,027.9,000.0,037.6,030.9,8.1,0000.0,0003.50,0000.71,0000.48
2023-10-20 09:05:00,SystemResetWarning,0832.5,4.99,000.00,029.3,028.0,000.0,037.6,030.9,8.1,0000.0,0003.51,0000.71,0000.48
2023-10-20 09:06:00,SystemResetWarning,0832.5,4.99,000.00,029.3,028.0,000.0,037.6,030.9,8.1,0000.0,0003.53,0000.72,0000.48
2023-10-20 09:07:00,SystemResetWarning,0832.5,5.01,000.00,029.3,028.0,000.0,037.6,030.9,8.0,0000.0,0003.53,0000.72,0000.48
2023-10-20 09:08:00,SystemResetWarning,0832.5,5.01,000.00,029.3,028.0,000.0,037.6,030.9,8.1,0000.0,0003.57,0000.73,0000.48
2023-10-20 09:09:00,SystemResetWarning,0832.6,5.00,000.00,029.3,027.9,000.0,037.7,030.9,8.2,0000.0,0003.34,0000.74,0000.48
2023-10-20 09:10:00,SystemResetWarning,0832.6,5.00,000.00,029.3,027.9,000.0,037.7,030.9,8.2,0000.0,0002.09,0000.71,0000.48
2023-10-20 09:11:00,SystemResetWarning,0832.5,5.00,000.00,029.3,027.9,000.0,037.7,030.9,8.2,0000.0,0001.91,0000.65,0000.47
2023-10-20 09:12:00,SystemResetWarning,0832.5,5.00,000.00,029.3,027.9,000.0,037.7,030.9,8.4,0000.0,0002.05,0000.66,0000.47
2023-10-20 09:13:00,SystemResetWarning,0832.5,5.00,000.00,029.3,027.9,000.0,037.7,030.9,8.3,0000.0,0002.53,0000.71,0000.48
2023-10-20 09:14:00,SystemResetWarning,0832.5,5.00,000.00,029.3,027.9,000.0,037.7,030.9,8.3,0000.0,0002.02,0000.72,0000.49
2023-10-20 09:15:00,SystemResetWarning,0832.5,5.00,000.00,029.3,027.9,000.0,037.7,031.0,8.3,0000.0,0001.83,0000.78,0000.51
2023-10-20 09:16:00,SystemResetWarning,0832.4,4.99,000.00,029.3,026.3,000.0,037.7,030.8,8.2,0000.0,0002.01,0000.83,0000.52
2023-10-20 09:17:00,SystemResetWarning,0832.3,5.02,000.00,029.2,024.8,000.0,037.6,030.6,8.2,0000.0,0002.36,0000.83,0000.53
2023-10-20 09:18:00,SystemResetWarning,0832.3,5.01,000.00,029.1,024.7,000.0,037.5,030.4,8.2,0000.0,0002.43,0000.85,0000.54
2023-10-20 09:19:00,SystemResetWarning,0832.2,4.99,000.00,028.9,024.9,000.0,037.5,030.2,8.2,0000.0,0003.40,0000.92,0000.55
2023-10-20 09:20:00,SystemResetWarning,0832.2,5.00,000.00,028.9,025.3,000.0,037.5,030.2,8.3,0000.0,0003.54,0000.96,0000.57
2023-10-20 09:21:00,SystemResetWarning,0832.2,5.01,000.00,028.8,025.6,000.0,037.5,030.2,8.3,0000.0,0004.17,0000.99,0000.58
2023-10-20 09:22:00,SystemResetWarning,0832.2,5.00,000.00,028.8,026.0,000.0,037.5,030.2,8.2,0000.0,0004.74,0001.04,0000.59
2023-10-20 09:23:00,SystemResetWarning,0832.2,5.00,000.00,028.8,026.2,000.0,037.4,030.3,8.3,0000.0,0004.72,0001.04,0000.60
2023-10-20 09:24:00,SystemResetWarning,0832.3,4.99,000.00,028.7,026.5,000.0,037.4,030.3,8.3,0000.0,0004.26,0001.03,0000.59
2023-10-20 09:25:00,SystemResetWarning,0832.2,4.99,000.00,028.7,026.7,000.0,037.4,030.3,8.2,0000.0,0004.20,0001.04,0000.59
2023-10-20 09:26:00,SystemResetWarning,0832.3,5.00,000.00,028.7,026.8,000.0,037.4,030.3,8.1,0000.0,0004.14,0001.02,0000.59
2023-10-20 09:27:00,SystemResetWarning,0832.3,5.00,000.00,028.8,026.9,000.0,037.4,030.3,8.2,0000.0,0004.04,0000.97,0000.58
2023-10-20 09:28:00,SystemResetWarning,0832.3,5.00,000.00,028.8,027.0,000.0,037.4,030.3,8.2,0000.0,0003.63,0000.95,0000.57
2023-10-20 09:29:00,SystemResetWarning,0832.3,5.01,000.00,028.8,027.1,000.0,037.3,030.4,8.1,0000.0,0003.72,0000.97,0000.57
2023-10-20 09:30:00,SystemResetWarning,0832.3,4.99,000.00,028.8,027.2,000.0,037.3,030.4,8.0,0000.0,0002.81,0000.91,0000.56
2023-10-20 09:31:00,SystemResetWarning,0832.3,4.99,000.00,028.8,027.3,000.0,037.3,030.4,7.9,0000.0,0003.24,0000.89,0000.55
2023-10-20 09:32:00,SystemResetWarning,0832.3,5.00,000.00,028.8,027.3,000.0,037.3,030.4,7.9,0000.0,0002.84,0000.89,0000.55
2023-10-20 09:33:00,SystemResetWarning,0832.3,5.00,000.00,028.8,027.4,000.0,037.3,030.5,7.9,0000.0,0002.28,0000.85,0000.54
2023-10-20 09:34:00,SystemResetWarning,0832.3,5.00,000.00,028.8,027.4,000.0,037.3,030.5,8.1,0000.0,0002.23,0000.84,0000.54
2023-10-20 09:35:00,SystemResetWarning,0832.3,5.00,000.00,028.9,027.5,000.0,037.3,030.5,8.1,0000.0,0002.13,0000.79,0000.54
2023-10-20 09:36:00,SystemResetWarning,0832.3,5.00,000.00,028.9,027.5,000.0,037.3,030.5,8.1,0000.0,0002.06,0000.76,0000.54
2023-10-20 09:37:00,SystemResetWarning,0832.3,5.00,000.00,028.9,027.5,000.0,037.3,030.5,8.2,0000.0,0002.19,0000.78,0000.54
2023-10-20 09:38:00,SystemResetWarning,0832.3,5.00,000.00,028.9,027.6,000.0,037.3,030.6,8.2,0000.0,0002.22,0000.78,0000.54
2023-10-20 09:39:00,SystemResetWarning,0832.3,5.00,000.00,028.9,027.6,000.0,037.3,030.6,8.0,0000.0,0002.30,0000.81,0000.54
2023-10-20 09:40:00,SystemResetWarning,0832.3,5.00,000.00,028.9,027.6,000.0,037.3,030.6,8.1,0000.0,0002.23,0000.81,0000.54
2023-10-20 09:41:00,SystemResetWarning,0832.3,5.00,000.00,029.0,027.7,000.0,037.3,030.6,8.2,0000.0,0002.34,0000.82,0000.53
2023-10-20 09:42:00,SystemResetWarning,0832.3,5.00,000.00,029.0,027.7,000.0,037.4,030.6,8.2,0000.0,0002.53,0000.81,0000.53
2023-10-20 09:43:00,SystemResetWarning,0832.3,5.01,000.00,029.0,027.7,000.0,037.4,030.7,8.1,0000.0,0002.75,0000.81,0000.53
2023-10-20 09:44:00,SystemResetWarning,0832.3,4.98,000.00,029.0,027.7,000.0,037.4,030.7,8.1,0000.0,0002.91,0000.84,0000.53
2023-10-20 09:45:00,SystemResetWarning,0832.3,5.03,000.00,029.0,027.7,000.0,037.4,030.7,8.1,0000.0,0002.95,0000.86,0000.52
2023-10-20 09:46:00,SystemResetWarning,0832.3,5.00,000.00,029.0,027.7,000.0,037.4,030.7,8.0,0000.0,0002.93,0000.85,0000.52
2023-10-20 09:47:00,SystemResetWarning,0832.3,4.99,000.00,029.0,027.7,000.0,037.4,030.7,8.0,0000.0,0003.11,0000.88,0000.52
2023-10-20 09:48:00,SystemResetWarning,0832.3,5.00,000.00,029.1,027.8,000.0,037.4,030.7,8.0,0000.0,0003.14,0000.88,0000.52
2023-10-20 09:49:00,SystemResetWarning,0832.3,5.01,000.00,029.1,027.8,000.0,037.4,030.7,8.0,0000.0,0003.15,0000.88,0000.52
2023-10-20 09:50:00,SystemResetWarning,0832.3,5.00,000.00,029.1,027.8,000.0,037.5,030.7,8.0,0000.0,0003.30,0000.90,0000.53
2023-10-20 09:51:00,SystemResetWarning,0832.3,5.01,000.00,029.1,027.8,000.0,037.5,030.7,7.9,0000.0,0004.13,0000.90,0000.53
2023-10-20 09:52:00,SystemResetWarning,0832.3,5.00,000.00,029.1,027.8,000.0,037.5,030.7,7.9,0000.0,0004.55,0000.89,0000.52
2023-10-20 09:53:00,SystemResetWarning,0832.3,4.99,000.00,029.1,027.8,000.0,037.5,030.8,7.8,0000.0,0003.93,0000.89,0000.53
2023-10-20 09:54:00,SystemResetWarning,0832.3,4.99,000.00,029.1,027.8,000.0,037.5,030.8,7.9,0000.0,0003.41,0000.87,0000.53
2023-10-20 09:55:00,SystemResetWarning,0832.3,5.00,000.00,029.1,027.8,000.0,037.5,030.8,7.8,0000.0,0003.14,0000.84,0000.53
2023-10-20 09:56:00,SystemResetWarning,0832.3,5.01,000.00,029.1,027.9,000.0,037.5,030.8,7.8,0000.0,0003.10,0000.83,0000.53
2023-10-20 09:57:00,SystemResetWarning,0832.3,5.01,000.00,029.2,027.9,000.0,037.5,030.8,7.7,0000.0,0003.13,0000.84,0000.52
2023-10-20 09:58:00,SystemResetWarning,0832.3,5.01,000.00,029.2,027.9,000.0,037.5,030.8,7.7,0000.0,0002.99,0000.83,0000.52
2023-10-20 09:59:00,SystemResetWarning,0832.3,5.00,000.00,029.2,027.9,000.0,037.6,030.9,7.7,0000.0,0003.51,0000.80,0000.51
